Weather History for Lafayette, LA

Change the Weather History Date:

Tuesday, October 1, 2013

  Actual Average Record
Temperature  
Mean Temperature 81 °F 75 °F  
Max Temperature 88 °F 85 °F 96 °F (1900)
Min Temperature 73 °F 65 °F 39 °F (1920)
Degree Days  
Heating Degree Days 0 0  
Month to date heating degree days 0 0  
Since 1 July heating degree days 0 1  
Cooling Degree Days 16 10  
Month to date cooling degree days 16 10  
Year to date cooling degree days 2621 2698  
Growing Degree Days 30 (Base 50)    
Moisture  
Dew Point 72 °F    
Average Humidity 77    
Maximum Humidity 94    
Minimum Humidity 59    
Precipitation  
Precipitation 0.13 in 0.15 in 2.55 in (1962)
Month to date precipitation 0.13 0.15  
Year to date precipitation 46.70 45.49  
Sea Level Pressure  
Sea Level Pressure 29.97 in    
Wind  
Wind Speed 3 mph (SE)    
Max Wind Speed 10 mph    
Max Gust Speed 18 mph    
Visibility 9 miles    
Events Rain    
T = Trace of Precipitation, MM = Missing Value Source: NWS Daily Summary

Daily Weather History Graph

Daily Weather History Graph

Search for Another Location

Airport:

Trip Planner

Search our weather history database for the weather conditions in past years. The results will help you decide how hot, cold, wet, or windy it might be!

Date:

Astronomy

Oct. 01, 2013 Rise Set
Actual Time 7:01 AM CDT 6:52 PM CDT
Civil Twilight 6:37 AM CDT 7:16 PM CDT
Nautical Twilight 6:09 AM CDT 7:44 PM CDT
Astronomical Twilight 5:41 AM CDT 8:12 PM CDT
Moon 3:48 AM CDT (10/1) 4:46 PM CDT (10/1)
Length of Visible Light 12h 39m
Length of Day
11h 51m
Waning Crescent, 12% of the Moon is Illuminated
Oct 1
Waning Crescent
Oct 4
New
Oct 11
First Quarter
Oct 18
Full
Oct 26
Last Quarter

Hourly Weather History & Observations

Time (CDT) Temp. Heat Index Dew Point Humidity Pressure Visibility Wind Dir Wind Speed Gust Speed Precip Events Conditions
12:23 AM 73.4 °F - 71.6 °F 94% 29.93 in 10.0 mi SE 3.5 mph - N/A   Mostly Cloudy
12:31 AM 73.4 °F - 71.6 °F 94% 29.93 in 10.0 mi Calm Calm - N/A   Scattered Clouds
12:53 AM 73.0 °F - 71.1 °F 93% 29.94 in 10.0 mi Calm Calm - N/A   Clear
1:22 AM 73.4 °F - 71.6 °F 94% 29.93 in 10.0 mi East 3.5 mph - N/A   Scattered Clouds
1:32 AM 73.4 °F - 71.6 °F 94% 29.93 in 9.0 mi Calm Calm - N/A   Mostly Cloudy
1:53 AM 73.0 °F - 71.1 °F 93% 29.94 in 8.0 mi Variable 3.5 mph - N/A   Overcast
2:20 AM 73.4 °F - 71.6 °F 94% 29.93 in 7.0 mi ESE 3.5 mph - N/A   Scattered Clouds
2:53 AM 73.0 °F - 71.1 °F 93% 29.93 in 9.0 mi SE 3.5 mph - N/A   Clear
3:53 AM 73.9 °F - 72.0 °F 93% 29.93 in 10.0 mi SE 3.5 mph - N/A   Partly Cloudy
4:53 AM 73.9 °F - 72.0 °F 93% 29.93 in 10.0 mi SSE 3.5 mph - N/A   Mostly Cloudy
5:53 AM 75.0 °F - 72.0 °F 90% 29.94 in 9.0 mi Variable 4.6 mph - 0.01 in Rain Light Rain
6:53 AM 73.9 °F - 72.0 °F 93% 29.96 in 10.0 mi Calm Calm - N/A   Mostly Cloudy
7:53 AM 73.9 °F - 72.0 °F 93% 29.99 in 5.0 mi Calm Calm - N/A   Overcast
8:00 AM 73.4 °F - 71.6 °F 94% 29.99 in 7.0 mi Calm Calm - N/A   Overcast
8:53 AM 78.1 °F - 72.0 °F 81% 30.00 in 10.0 mi Variable 3.5 mph - N/A   Overcast
9:53 AM 80.1 °F 83.8 °F 72.0 °F 76% 30.00 in 10.0 mi ESE 3.5 mph - N/A   Clear
10:53 AM 82.0 °F 87.4 °F 73.0 °F 74% 30.00 in 7.0 mi Variable 3.5 mph - N/A   Scattered Clouds
11:53 AM 86.0 °F 91.5 °F 71.1 °F 61% 30.00 in 10.0 mi South 8.1 mph - N/A   Mostly Cloudy
12:53 PM 87.1 °F 92.8 °F 71.1 °F 59% 29.99 in 10.0 mi SSE 5.8 mph - N/A   Mostly Cloudy
1:53 PM 75.9 °F - 71.1 °F 85% 29.98 in 2.5 mi ESE 6.9 mph 18.4 mph 0.11 in Rain Light Rain
2:04 PM 75.2 °F - 71.6 °F 89% 29.98 in 8.0 mi East 5.8 mph - 0.00 in Rain Light Rain
2:53 PM 79.0 °F - 73.9 °F 84% 29.96 in 10.0 mi Calm Calm - 0.01 in   Mostly Cloudy
3:17 PM 80.6 °F 85.4 °F 73.4 °F 79% 29.96 in 10.0 mi SSE 3.5 mph - N/A   Mostly Cloudy
3:24 PM 80.6 °F 86.2 °F 75.2 °F 84% 29.97 in 10.0 mi Variable 3.5 mph - N/A   Scattered Clouds
3:53 PM 81.0 °F 85.8 °F 73.0 °F 77% 29.97 in 10.0 mi SSE 4.6 mph - N/A   Mostly Cloudy
4:53 PM 81.0 °F 84.9 °F 71.1 °F 72% 29.97 in 10.0 mi South 8.1 mph - N/A   Partly Cloudy
5:53 PM 81.0 °F 84.9 °F 71.1 °F 72% 29.97 in 10.0 mi SSE 4.6 mph - N/A   Partly Cloudy
6:53 PM 79.0 °F - 73.0 °F 82% 29.97 in 10.0 mi Calm Calm - N/A   Partly Cloudy
7:53 PM 77.0 °F - 73.9 °F 90% 29.97 in 10.0 mi ENE 3.5 mph - 0.00 in Rain Light Rain
8:53 PM 75.9 °F - 73.0 °F 91% 29.99 in 10.0 mi NE 3.5 mph - 0.00 in   Clear
9:28 PM 75.2 °F - 73.4 °F 94% 30.00 in 10.0 mi Calm Calm - 0.00 in Rain Light Rain
9:38 PM 75.2 °F - 73.4 °F 94% 30.00 in 10.0 mi Calm Calm - 0.00 in   Scattered Clouds
9:53 PM 75.0 °F - 73.0 °F 94% 30.00 in 10.0 mi Calm Calm - 0.00 in   Partly Cloudy
10:53 PM 75.0 °F - 73.0 °F 94% 30.00 in 10.0 mi Calm Calm - N/A   Clear
11:53 PM 73.9 °F - 72.0 °F 93% 30.00 in 10.0 mi Calm Calm - N/A   Clear